Location: Unspecified
(0.0000°N, 0.0000°E)
Time: 19:29:56
(UTC+00:00)

Vanguard 2 Rocket - Pass Details

Date: 12 October 2023
Orbit: 553 x 3312 km, 32.9° (Epoch: 28 November)

Event Time Altitude Azimuth Distance (km) Brightness Sun altitude
Rises 06:05:02 0° 292° (WNW) 3,501 9.3 4.6°
Reaches altitude 10° 06:09:01 10° 320° (NW) 2,993 9.1 5.6°
Maximum altitude 06:12:20 13° 347° (NNW) 3,127 9.5 6.4°
Drops below altitude 10° 06:16:24 10° 13° (NNE) 3,839 10.2 7.4°
Sets 06:23:17 0° 36° (NE) 5,578 11.3 9.1°
